Location: Franzen
(48.6167°N, 15.3833°E)
Time: 10:03:00
(UTC+00:00)

COSMOS 2455 - Pass Details

Date: 22 April 2021
Orbit: 902 x 907 km, 67.1° (Epoch: 16 May)

Event Time Altitude Azimuth Distance (km) Brightness Sun altitude
Rises 21:26:51 0° 238° (WSW) 3,523 5.9 -25.7°
Reaches altitude 10° 21:29:30 10° 245° (WSW) 2,586 5.2 -25.9°
Maximum altitude 21:35:10 42° 316° (NW) 1,272 4.0 -26.3°
Drops below altitude 10° 21:40:53 10° 27° (NNE) 2,600 5.7 -26.6°
Sets 21:43:33 0° 34° (NE) 3,545 6.4 -26.8°
